Regional Weather Roundup
Issued by NWS

Home | Current Version | Previous Version | Text Only | Print | Product List | Glossary Off
Versions: 1 2 3 4 5 6 7 8 9 10 11 12 13 14 15 16 17 18 19 20 21 22 23 24 25 26 27 28 29 30 31 32 33 34 35 36 37 38 39 40 41 42 43 44 45 46 47 48 49 50

000
ASUS43 KLSX 262359
RWRMO

WEATHER SUMMARY FOR MISSOURI
NATIONAL WEATHER SERVICE SPRINGFIELD MO
700 PM CDT TUE AUG 26 2014

NOTE: "FAIR" INDICATES FEW OR NO CLOUDS BELOW 12,000 FEET WITH NO
       SIGNIFICANT WEATHER AND/OR OBSTRUCTIONS TO VISIBILITY.
       CURRENT SKY AND/OR WEATHER CONDITIONS ARE NOT AVAILABLE FOR
       CHILLICOTHE AND FARMINGTON.

MOZ001>031-035>038-043-044-053-054-270100-
...NORTHERN AND WESTERN MISSOURI...

CITY           SKY/WX    TMP DP  RH WIND       PRES   REMARKS
KANSAS CTY INT MOSUNNY   83  72  69 NE10      30.06R
6HR MIN TEMP:  83; 6HR MAX TEMP:  89;

KANSAS C DTWN  SUNNY     88  71  57 E10       30.03R HX  94
6HR MIN TEMP:  87; 6HR MAX TEMP:  93;

LEE`S SUMMIT   SUNNY     87  73  62 NE8       30.06R HX  94
6HR MIN TEMP:  85; 6HR MAX TEMP:  92;

ST JOSEPH      SUNNY     82  73  74 NE8       30.05S
6HR MIN TEMP:  81; 6HR MAX TEMP:  89;

KIRKSVILLE     PTCLDY    80  72  76 NE7       30.09R
6HR MIN TEMP:  80; 6HR MAX TEMP:  87;


$$
MOZ066>068-077>081-088>096-101>105-270100-
...SOUTHWEST MISSOURI...

CITY           SKY/WX    TMP DP  RH WIND       PRES   REMARKS
SPRINGFIELD    MOCLDY    82  68  62 N7        30.07R
6HR MIN TEMP:  81; 6HR MAX TEMP:  99; 6HR PCP: TRACE;

JOPLIN         LGT RAIN  83  69  62 E10       30.02R
6HR MIN TEMP:  83; 6HR MAX TEMP:  99; 6HR PCP:  0.02;


$$
MOZ032>034-039>042-045>050-055>058-069>072-270100-
...CENTRAL MISSOURI...

CITY           SKY/WX    TMP DP  RH WIND       PRES   REMARKS
COLUMBIA       PTCLDY    86  68  54 SE9       30.06R
6HR MIN TEMP:  86; 6HR MAX TEMP:  96;

JEFFERSON CITY MOCLDY    84  67  56 SE7       30.04R
6HR MIN TEMP:  84; 6HR MAX TEMP:  96;

ROLLA          CLOUDY    79  66  64 N6        30.07R
6HR MIN TEMP:  74; 6HR MAX TEMP:  97;

SEDALIA        CLEAR     91  73  55 NE5       30.05R HX  99
6HR MIN TEMP:  88; 6HR MAX TEMP:  95;

OSAGE BEACH    CLOUDY    73  64  73 CALM      30.06F

$$
MOZ051-052-059>065-270100-
...EAST CENTRAL MISSOURI...

CITY           SKY/WX    TMP DP  RH WIND       PRES   REMARKS
ST LOUIS INTL  MOCLDY    85  67  54 S5        30.04S
6HR MIN TEMP:  82; 6HR MAX TEMP:  98; 6HR PCP:  0.03;

SPIRIT OF STL  CLOUDY    84  72  67 CALM      30.03R
6HR MIN TEMP:  84; 6HR MAX TEMP:  96;

ST CHARLES     MOCLDY    83  69  62 CALM      30.02R
6HR MIN TEMP:  83; 6HR MAX TEMP:  95;


$$
MOZ072>076-082>087-097>100-106>115-270100-
...SOUTH CENTRAL AND SOUTHEAST MISSOURI...

CITY           SKY/WX    TMP DP  RH WIND       PRES   REMARKS
CAPE GIRARDEAU CLEAR     89  75  63 E6        30.03R HX  99
6HR MIN TEMP:  89; 6HR MAX TEMP:  94;

FARMINGTON     MOCLDY    88  70  55 E6        30.09R HX  92
6HR MIN TEMP:  88; 6HR MAX TEMP:  97;

POPLAR BLUFF   CLEAR     90  71  53 CALM      30.02R HX  96
6HR MIN TEMP:  90; 6HR MAX TEMP:  95;

WEST PLAINS    CLEAR     90  63  40 E3        30.08R HX  91
6HR MIN TEMP:  88; 6HR MAX TEMP:  94;


$$


USA.gov is the U.S. government's official web portal to all federal, state and local government web resources and services.